Orbital Elements at Epoch 2459000.5 (2020-May-31.0) TDB
Reference: JPL 14 (heliocentric ecliptic J2000)
Element | Value | Uncertainty (1-sigma) | Units |
e | .02846301387317998 | 7.1831e-08 | |
a | 3.169885857424609 | 3.8772e-08 | au |
q | 3.079661352288335 | 2.4038e-07 | au |
i | 20.98261859985737 | 9.334e-06 | deg |
node | 27.48524417986398 | 1.3637e-05 | deg |
peri | 119.8028930698346 | 0.00014893 | deg |
M | 236.6210050668592 | 0.00014623 | deg |
tp | 2459706.984422754425 (2022-May-07.48442275) | 0.00083867 | TDB |
period | 2061.40755425522 5.64 | 3.7821e-05 1.035e-07 | d yr |
n | .1746379551471406 | 3.2041e-09 | deg/d |
Q | 3.260110362560883 | 3.9876e-08 | au |
|
| | Orbit Determination Parameters
Additional Information
|